ASP519 CYYC-CYLW

Flight info

Callsign ASP519
Flight time 0h 49m
Altitude 34000
Route BOTAG Q894 BINVO DCT ROBTI NORIP5
Aircraft C25C/M-SDE2E3FGHRWXY/LB1

Departure

Time 2026-05-09 05:23
Airport Calgary International Airport (CYYC)

Arrival

Time 2026-05-09 06:12
Airport Kelowna International Airport (CYLW)
Time Latitude Longitude Altitude Speed Heading
2026-05-09 04:58 51.09996 -114.00754 3553 ft 0 kts 226°
2026-05-09 05:19 51.09989 -114.00780 3553 ft 7 kts 268°
2026-05-09 05:19 51.10041 -114.00868 3553 ft 15 kts 313°
2026-05-09 05:19 51.10132 -114.01023 3553 ft 22 kts 315°
2026-05-09 05:19 51.10242 -114.01205 3553 ft 21 kts 286°
2026-05-09 05:20 51.10173 -114.01408 3553 ft 22 kts 221°
2026-05-09 05:20 51.10065 -114.01578 3553 ft 21 kts 223°
2026-05-09 05:20 51.09931 -114.01647 3553 ft 20 kts 180°
2026-05-09 05:20 51.09808 -114.01728 3553 ft 19 kts 209°
2026-05-09 05:21 51.09699 -114.01835 3553 ft 17 kts 239°
2026-05-09 05:21 51.09692 -114.01962 3553 ft 5 kts 269°
2026-05-09 05:21 51.09692 -114.01965 3553 ft 0 kts 268°
2026-05-09 05:21 51.09692 -114.01975 3553 ft 5 kts 268°
2026-05-09 05:22 51.09698 -114.02101 3555 ft 15 kts 300°
2026-05-09 05:22 51.09807 -114.02136 3555 ft 13 kts 359°
2026-05-09 05:22 51.09818 -114.02136 3555 ft 0 kts 357°
2026-05-09 05:22 51.10199 -114.02140 3552 ft 111 kts
2026-05-09 05:23 51.11268 -114.02067 3775 ft 180 kts
2026-05-09 05:23 51.12605 -114.01976 4530 ft 202 kts
2026-05-09 05:23 51.14094 -114.01853 5192 ft 233 kts
2026-05-09 05:23 51.15777 -114.01720 5835 ft 243 kts
2026-05-09 05:24 51.16889 -114.01699 6332 ft 239 kts 355°
2026-05-09 05:24 51.18360 -114.02619 7331 ft 229 kts 323°
2026-05-09 05:24 51.19658 -114.05511 8269 ft 261 kts 291°
2026-05-09 05:24 51.19963 -114.08455 9099 ft 277 kts 269°
2026-05-09 05:25 51.19833 -114.10469 9798 ft 273 kts 262°
2026-05-09 05:25 51.19542 -114.13521 10138 ft 285 kts 262°
2026-05-09 05:25 51.18968 -114.19766 10899 ft 289 kts 262°
2026-05-09 05:26 51.18673 -114.22960 11456 ft 290 kts 262°
2026-05-09 05:26 51.18373 -114.26169 12214 ft 297 kts 262°
2026-05-09 05:26 51.18065 -114.29492 12997 ft 308 kts 262°
2026-05-09 05:26 51.17744 -114.32933 13804 ft 319 kts 262°
2026-05-09 05:27 51.17144 -114.36368 14510 ft 330 kts 244°
2026-05-09 05:27 51.15851 -114.39402 15242 ft 338 kts 236°
2026-05-09 05:27 51.14434 -114.42438 15998 ft 343 kts 236°
2026-05-09 05:27 51.13091 -114.45579 16906 ft 341 kts 241°
2026-05-09 05:28 51.11862 -114.48798 17963 ft 339 kts 242°
2026-05-09 05:28 51.10621 -114.51991 18939 ft 338 kts 241°
2026-05-09 05:28 51.09344 -114.55125 19887 ft 337 kts 241°
2026-05-09 05:28 51.08084 -114.58226 20823 ft 337 kts 242°
2026-05-09 05:29 51.06948 -114.61503 21566 ft 337 kts 255°
2026-05-09 05:29 51.06376 -114.65125 22346 ft 340 kts 260°
2026-05-09 05:29 51.05773 -114.68796 23151 ft 345 kts 260°
2026-05-09 05:29 51.05190 -114.72519 23907 ft 348 kts 261°
2026-05-09 05:30 51.04609 -114.76270 24591 ft 351 kts 261°
2026-05-09 05:30 51.04008 -114.80043 25295 ft 354 kts 261°
2026-05-09 05:30 51.03396 -114.83836 26014 ft 354 kts 260°
2026-05-09 05:30 51.02781 -114.87626 26760 ft 354 kts 261°
2026-05-09 05:31 51.02170 -114.91412 27515 ft 352 kts 261°
2026-05-09 05:31 51.01573 -114.95124 28292 ft 350 kts 261°
2026-05-09 05:31 51.00965 -114.98867 29001 ft 352 kts 261°
2026-05-09 05:31 51.00349 -115.02653 29551 ft 356 kts 261°
2026-05-09 05:32 50.99729 -115.06482 30102 ft 360 kts 261°
2026-05-09 05:32 50.99096 -115.10348 30580 ft 362 kts 261°
2026-05-09 05:32 50.98457 -115.14246 31074 ft 364 kts 261°
2026-05-09 05:32 50.97814 -115.18138 31562 ft 365 kts 261°
2026-05-09 05:33 50.97178 -115.22054 32074 ft 365 kts 260°
2026-05-09 05:33 50.96542 -115.25915 32584 ft 365 kts 260°
2026-05-09 05:33 50.95893 -115.29804 33109 ft 364 kts 260°
2026-05-09 05:33 50.95251 -115.33682 33640 ft 362 kts 260°
2026-05-09 05:34 50.94609 -115.37557 33979 ft 366 kts 260°
2026-05-09 05:34 50.93958 -115.41509 34015 ft 376 kts 259°
2026-05-09 05:34 50.92590 -115.49683 34030 ft 391 kts 259°
2026-05-09 05:35 50.91168 -115.58157 34033 ft 401 kts 259°
2026-05-09 05:35 50.89716 -115.66762 34053 ft 405 kts 259°
2026-05-09 05:36 50.88318 -115.75045 34044 ft 409 kts 259°
2026-05-09 05:36 50.86832 -115.83769 34041 ft 408 kts 258°
2026-05-09 05:37 50.85370 -115.92299 34047 ft 400 kts 258°
2026-05-09 05:37 50.83921 -116.00761 34031 ft 396 kts 258°
2026-05-09 05:38 50.82472 -116.09134 34024 ft 392 kts 258°
2026-05-09 05:38 50.81027 -116.17433 34025 ft 390 kts 258°
2026-05-09 05:39 50.79594 -116.25688 34020 ft 389 kts 257°
2026-05-09 05:39 50.78146 -116.33908 34026 ft 387 kts 257°
2026-05-09 05:40 50.76718 -116.42113 34028 ft 387 kts 257°
2026-05-09 05:40 50.75083 -116.50165 34028 ft 389 kts 252°
2026-05-09 05:41 50.73225 -116.58174 34032 ft 387 kts 253°
2026-05-09 05:41 50.71351 -116.66159 34029 ft 388 kts 252°
2026-05-09 05:42 50.69468 -116.74138 34034 ft 388 kts 252°
2026-05-09 05:42 50.67577 -116.82118 34031 ft 388 kts 252°
2026-05-09 05:43 50.65694 -116.90091 34042 ft 389 kts 251°
2026-05-09 05:43 50.63792 -116.98055 34039 ft 389 kts 251°
2026-05-09 05:44 50.61889 -117.06041 34046 ft 389 kts 251°
2026-05-09 05:44 50.59971 -117.14018 34044 ft 389 kts 251°
2026-05-09 05:45 50.58051 -117.21984 34042 ft 389 kts 250°
2026-05-09 05:45 50.56132 -117.29954 34040 ft 390 kts 251°
2026-05-09 05:46 50.54193 -117.37921 34047 ft 390 kts 250°
2026-05-09 05:46 50.52265 -117.45848 34051 ft 390 kts 250°
2026-05-09 05:47 50.50318 -117.53818 34033 ft 391 kts 250°
2026-05-09 05:47 50.49337 -117.57827 33595 ft 391 kts 250°
2026-05-09 05:47 50.48366 -117.61779 33085 ft 385 kts 250°
2026-05-09 05:48 50.47407 -117.65671 32590 ft 379 kts 250°
2026-05-09 05:48 50.46460 -117.69521 32090 ft 376 kts 250°
2026-05-09 05:48 50.45518 -117.73339 31592 ft 373 kts 250°
2026-05-09 05:48 50.44588 -117.77124 31102 ft 371 kts 250°
2026-05-09 05:49 50.43664 -117.80839 30625 ft 370 kts 250°
2026-05-09 05:49 50.42721 -117.84644 30122 ft 369 kts 250°
2026-05-09 05:49 50.41801 -117.88343 29611 ft 368 kts 250°
2026-05-09 05:49 50.40876 -117.92070 29127 ft 365 kts 249°
2026-05-09 05:50 50.39958 -117.95766 28648 ft 362 kts 249°
2026-05-09 05:50 50.39036 -117.99432 28171 ft 361 kts 249°
2026-05-09 05:50 50.38130 -118.03085 27813 ft 356 kts 249°
2026-05-09 05:50 50.37231 -118.06656 27522 ft 350 kts 249°
2026-05-09 05:51 50.36338 -118.10210 27080 ft 350 kts 249°
2026-05-09 05:51 50.35449 -118.13760 26617 ft 350 kts 249°
2026-05-09 05:51 50.34555 -118.17314 26155 ft 350 kts 249°
2026-05-09 05:51 50.33658 -118.20853 25691 ft 350 kts 249°
2026-05-09 05:52 50.32763 -118.24405 25234 ft 350 kts 249°
2026-05-09 05:52 50.31870 -118.27954 24769 ft 350 kts 249°
2026-05-09 05:52 50.30981 -118.31460 24314 ft 351 kts 249°
2026-05-09 05:52 50.30081 -118.35017 23849 ft 351 kts 249°
2026-05-09 05:53 50.29341 -118.38668 23350 ft 350 kts 255°
2026-05-09 05:53 50.28612 -118.42296 22883 ft 349 kts 252°
2026-05-09 05:53 50.27864 -118.45889 22426 ft 347 kts 253°
2026-05-09 05:53 50.27145 -118.49474 21975 ft 345 kts 253°
2026-05-09 05:54 50.26432 -118.53050 21530 ft 344 kts 254°
2026-05-09 05:54 50.25717 -118.56612 21083 ft 343 kts 253°
2026-05-09 05:54 50.24992 -118.60162 20632 ft 343 kts 253°
2026-05-09 05:54 50.24286 -118.63655 20190 ft 340 kts 254°
2026-05-09 05:55 50.23576 -118.67153 19752 ft 337 kts 254°
2026-05-09 05:55 50.22867 -118.70636 19310 ft 335 kts 254°
2026-05-09 05:55 50.22168 -118.74102 18883 ft 334 kts 254°
2026-05-09 05:55 50.21467 -118.77539 18441 ft 331 kts 254°
2026-05-09 05:56 50.20763 -118.80934 17981 ft 327 kts 254°
2026-05-09 05:56 50.20081 -118.84301 17546 ft 323 kts 255°
2026-05-09 05:56 50.19398 -118.87628 17122 ft 320 kts 254°
2026-05-09 05:56 50.18726 -118.90914 16709 ft 317 kts 255°
2026-05-09 05:57 50.18050 -118.94170 16299 ft 314 kts 254°
2026-05-09 05:57 50.17386 -118.97402 15830 ft 313 kts 255°
2026-05-09 05:57 50.16719 -119.00631 15401 ft 311 kts 255°
2026-05-09 05:57 50.16058 -119.03836 14986 ft 309 kts 255°
2026-05-09 05:58 50.15648 -119.07045 14584 ft 303 kts 273°
2026-05-09 05:58 50.16013 -119.10221 14194 ft 295 kts 291°
2026-05-09 05:58 50.17058 -119.12924 13793 ft 290 kts 311°
2026-05-09 05:58 50.18494 -119.15100 13381 ft 287 kts 317°
2026-05-09 05:59 50.19948 -119.17209 12998 ft 284 kts 318°
2026-05-09 05:59 50.21400 -119.19284 12617 ft 281 kts 317°
2026-05-09 05:59 50.22810 -119.21361 12226 ft 277 kts 317°
2026-05-09 05:59 50.24209 -119.23397 11829 ft 272 kts 317°
2026-05-09 06:00 50.25600 -119.25370 11463 ft 268 kts 323°
2026-05-09 06:00 50.27293 -119.26496 11066 ft 265 kts 347°
2026-05-09 06:00 50.29108 -119.26853 10693 ft 261 kts 354°
2026-05-09 06:00 50.30909 -119.27079 10326 ft 257 kts 355°
2026-05-09 06:01 50.32680 -119.27291 9947 ft 254 kts 354°
2026-05-09 06:01 50.34438 -119.27536 9543 ft 252 kts 353°
2026-05-09 06:01 50.36155 -119.27983 9147 ft 249 kts 337°
2026-05-09 06:01 50.37383 -119.29726 8720 ft 243 kts 300°
2026-05-09 06:02 50.37674 -119.32285 8305 ft 243 kts 263°
2026-05-09 06:02 50.36898 -119.34592 7883 ft 245 kts 225°
2026-05-09 06:02 50.35369 -119.35694 7491 ft 247 kts 189°
2026-05-09 06:02 50.33722 -119.36146 7226 ft 235 kts 206°
2026-05-09 06:03 50.32323 -119.37421 6884 ft 231 kts 210°
2026-05-09 06:03 50.30869 -119.38492 6506 ft 231 kts 204°
2026-05-09 06:03 50.29369 -119.39409 6103 ft 232 kts 202°
2026-05-09 06:03 50.27876 -119.40327 5711 ft 229 kts 204°
2026-05-09 06:04 50.26411 -119.41260 5338 ft 226 kts 204°
2026-05-09 06:04 50.24916 -119.41868 5121 ft 218 kts 180°
2026-05-09 06:04 50.23467 -119.41643 5095 ft 205 kts 178°
2026-05-09 06:04 50.22074 -119.41478 5088 ft 203 kts 177°
2026-05-09 06:05 50.20649 -119.41273 5084 ft 204 kts 177°
2026-05-09 06:05 50.19234 -119.41073 5084 ft 205 kts 177°
2026-05-09 06:05 50.17884 -119.40882 5109 ft 192 kts 177°
2026-05-09 06:05 50.16582 -119.40697 5097 ft 183 kts 178°
2026-05-09 06:06 50.15334 -119.40520 5108 ft 178 kts 178°
2026-05-09 06:06 50.14112 -119.40349 5087 ft 177 kts 178°
2026-05-09 06:06 50.12862 -119.40171 4883 ft 183 kts 178°
2026-05-09 06:06 50.11624 -119.40001 4625 ft 173 kts 179°
2026-05-09 06:07 50.10493 -119.39835 4361 ft 153 kts 177°
2026-05-09 06:07 50.09498 -119.39712 4139 ft 130 kts 175°
2026-05-09 06:07 50.08670 -119.39592 3939 ft 111 kts 176°
2026-05-09 06:07 50.07930 -119.39487 3772 ft 102 kts 176°
2026-05-09 06:08 50.07219 -119.39385 3629 ft 105 kts 176°
2026-05-09 06:08 50.06476 -119.39283 3486 ft 110 kts 175°
2026-05-09 06:08 50.05705 -119.39175 3348 ft 112 kts 176°
2026-05-09 06:08 50.04925 -119.39066 3203 ft 113 kts 176°
2026-05-09 06:09 50.04146 -119.38958 3051 ft 112 kts 177°
2026-05-09 06:09 50.03632 -119.38883 2951 ft 112 kts 176°
2026-05-09 06:09 50.02852 -119.38786 2798 ft 113 kts 176°
2026-05-09 06:09 50.02062 -119.38671 2645 ft 115 kts 178°
2026-05-09 06:10 50.01267 -119.38558 2478 ft 114 kts 177°
2026-05-09 06:10 50.00473 -119.38448 2301 ft 115 kts 176°
2026-05-09 06:10 49.99695 -119.38347 2140 ft 112 kts 177°
2026-05-09 06:10 49.98916 -119.38240 1955 ft 114 kts 177°
2026-05-09 06:11 49.98122 -119.38137 1802 ft 114 kts 174°
2026-05-09 06:11 49.97333 -119.38048 1608 ft 112 kts 173°
2026-05-09 06:11 49.96574 -119.37924 1434 ft 105 kts 173°
2026-05-09 06:11 49.95945 -119.37821 1408 ft 79 kts 172°
2026-05-09 06:12 49.95472 -119.37751 1387 ft 58 kts 176°
2026-05-09 06:12 49.95204 -119.37722 1385 ft 21 kts 176°
2026-05-09 06:12 49.95156 -119.37837 1381 ft 11 kts 298°
2026-05-09 06:12 49.95213 -119.37866 1386 ft 9 kts 355°
2026-05-09 06:13 49.95272 -119.37874 1388 ft 9 kts 354°
2026-05-09 06:13 49.95337 -119.37884 1386 ft 10 kts 354°
2026-05-09 06:13 49.95410 -119.37889 1391 ft 11 kts 356°
2026-05-09 06:13 49.95490 -119.37905 1393 ft 12 kts 352°
2026-05-09 06:14 49.95576 -119.37916 1405 ft 12 kts 356°
2026-05-09 06:14 49.95662 -119.37928 1398 ft 13 kts 355°
2026-05-09 06:14 49.95753 -119.37941 1401 ft 13 kts 354°
2026-05-09 06:14 49.95849 -119.37955 1407 ft 14 kts 356°
2026-05-09 06:15 49.95949 -119.37969 1407 ft 15 kts 340°
2026-05-09 06:15 49.96045 -119.37983 1415 ft 14 kts 357°
2026-05-09 06:15 49.96150 -119.37997 1412 ft 16 kts 355°
2026-05-09 06:15 49.96261 -119.38012 1415 ft 16 kts 355°
2026-05-09 06:16 49.96377 -119.38027 1417 ft 17 kts 355°
2026-05-09 06:16 49.96488 -119.38041 1420 ft 14 kts 354°
2026-05-09 06:16 49.96584 -119.38058 1423 ft 12 kts 350°
2026-05-09 06:16 49.96654 -119.38101 1425 ft 11 kts 352°
2026-05-09 06:17 49.96710 -119.38136 1426 ft 8 kts 331°
2026-05-09 06:17 49.96753 -119.38151 1427 ft 0 kts 353°